如果您想下载权力的游戏 第五季 / Game of Thrones Season 5 / 冰与火之歌:权力的游戏第五季 / 王座游戏第五季 / ASongofIceandFire:GameofThronesSeason5的BT种子文件或数据,请使用迅雷、QQ旋风、uTorrent等BT工具下载。 If you want to download 权力的游戏 第五季 / Game of Thrones Season 5 / 冰与火之歌:权力的游戏第五季 / 王座游戏第五季 / ASongofIceandFire:GameofThronesSeason5 files,please use the BT tools such as thunderbolt, QQ whirlwind or uTorrent to download.

下载地址 文件名 文件大小 发布日期
权力的游戏 第五季/Game of Thrones - Season 5 (2015) 20.42 GB 2018-11-10
权力的游戏 第五季/Game.of.Thrones.S05E09.720p.HDTV.x264-0SEC[rarbg] 1.44 GB 2018-11-10
权力的游戏 第五季/Game of Thrones S05E04-1080p ZeiZ.mkv 1.38 GB 2018-11-07
权力的游戏 第五季/Game of Thrones 2015 - 5ª Temporada Completa [1080p] WWW.BLUDV.COM 10.76 GB 2018-11-07
权力的游戏 第五季/Game of Thrones S05E06 Unbowed, Unbent, Unbroken 1080p Web-DL [Phr0stY].mkv 1.96 GB 2018-10-20
权力的游戏 第五季/Game of Thrones S05E03 High Sparrow.mkv 1.22 GB 2018-10-13
权力的游戏 第五季/Game.of.Thrones.S05E07.720p.HDTV.x264-IMMERSE.mkv 1.11 GB 2018-10-13
权力的游戏 第五季/Game.of.Thrones.S05E04.HDTV.x264-Xclusive.mp4 341.88 MB 2018-10-11
权力的游戏 第五季/Game.of.Thrones.S05E06.HDTV.XviD-FUM.avi 449.35 MB 2018-10-10
权力的游戏 第五季/Game.of.Thrones.S05E01.The.Wars.to.Come.720p.WEB-DL.DD5.1.H.264-NTb[rarbg] 1.62 GB 2018-10-08
权力的游戏 第五季/Game of Thrones (Season 5) (2015) HDTVRip-AVC [UKR] [UAGet] 5.23 GB 2018-10-06
权力的游戏 第五季/Game.of.Thrones.S05E06.INTERNAL.720p.HDTV.x264-BATV.mkv 1.28 GB 2018-10-03
权力的游戏 第五季/Game.of.Thrones.S05E01.READNFO.INTERNAL.720p.HDTV.x264-BATV[rarbg] 1.18 GB 2018-10-01
权力的游戏 第五季/Game.of.Thrones.S05E10.HDTV.x264-KILLERS[ettv] 419.47 MB 2018-10-01
权力的游戏 第五季/Game of Thrones S05E10 Mothers Mercy (1080p Web x265 10bit Joy) 474.20 MB 2018-09-30
权力的游戏 第五季/Game.of.Thrones.S05E07.1080p.HDTV.x264-BATV 5.36 GB 2018-09-19
权力的游戏 第五季/Game.of.Thrones.S05E06.SWESUB.HDTV.XviD-Haggebulle 473.64 MB 2018-09-13
权力的游戏 第五季/Game.of.Thrones.S05E09.INTERNAL.HDTV.x264-BATV.mp4 473.57 MB 2018-09-08
权力的游戏 第五季/Game.of.Thrones.S05E03.HDTV.x264-KILLERS[rarbg] 355.23 MB 2018-09-06
权力的游戏 第五季/Game.of.Thrones.S05E10.720p.HDTV.x264-0SEC 1.38 GB 2018-09-04
权力的游戏 第五季/Game.of.Thrones.S05E09.720p.HDTV.x264-Belex-Dual.Audio 1.51 GB 2018-09-03
权力的游戏 第五季/Game of Thrones S05E09 1080p HDTV [4DO.SE].mp4 1.12 GB 2018-09-03
权力的游戏 第五季/Game of Thrones (Season 5) (2015) BDRip [2xUKR] [Hurtom] 8.44 GB 2018-08-31
权力的游戏 第五季/Game.of.Thrones.S05E10.1080p.HDTV.x264-BATV.mkv 5.96 GB 2018-08-30
权力的游戏 第五季/Game of Thrones. Season 5 (2015) WEB-DLRip [Ideafilm] 2.21 GB 2018-08-23
权力的游戏 第五季/Game.of.Thrones.S05E08.HDTV.720p.DUB.[qqss44].mkv 1.58 GB 2018-08-21
权力的游戏 第五季/Game.of.Thrones.S05E06.HDTV.x264-ASAP.mp4 334.90 MB 2018-07-27
权力的游戏 第五季/GAME_OF_THRONES_2015_S05_RUS[AlexFilm]_DD5.1_x264_Nikolai.Baranov_HDTVRip-AVC_(1080p) 13.56 GB 2018-04-06
权力的游戏 第五季/Game.of.Thrones.S05E07.PROPER.1080p.BluRay.x264-ROVERS[rartv] 4.02 GB 2018-03-09
权力的游戏 第五季/Game of Thrones S05E05 HDTV XviD-FUM[ettv] 448.73 MB 2018-01-19
权力的游戏 第五季/Game.of.Thrones.S05E09.1080p.HDTV.DD5.1.x264-ITSat 2.46 GB 2017-12-22
权力的游戏 第五季/Game of Thrones S05E02 720p HDTV x264 AAC - Ozlem 449.62 MB 2017-10-12
权力的游戏 第五季/Game.of.Thrones.S05E01.HDTV.x264-ASAP 305.35 MB 2017-09-26
权力的游戏 第五季/Game.of.Thrones.S05E03.HDTV.x264-KILLERS 371.81 MB 2017-09-25
权力的游戏 第五季/Game.of.Thrones.S05E02.HDTV.x265.HEVC_INC 133.60 MB 2017-09-16
权力的游戏 第五季/[ www.torrenting.com ] - Game.of.Thrones.S05E01.HDTV.x264-ASAP 310.68 MB 2017-09-02
权力的游戏 第五季/Game of Thrones S05E06 HDTV XviD-FUM[ettv] 449.35 MB 2017-08-30
权力的游戏 第五季/权力的游戏.Game.of.Thrones.S05E02.中英字幕.WEB-HR.AAC.1024X576.x264.mp4 543.14 MB 2017-08-24
权力的游戏 第五季/Игра престолов Game of Thrones 2015 HDTV (720p) LostFilm 16.44 GB 2017-08-24
权力的游戏 第五季/权力的游戏.第五季全集.Game.of.Thrones.S05E01-10.HD1080P.X264.AAC.english.CHS-ENG.Mp4Ba 23.48 GB 2017-08-23
权力的游戏 第五季/冰与火之歌:权力的游戏.Game.of.Thrones.S05E02.HD720P.X264.AAC.english.CHS-ENG.Mp4Ba 1.03 GB 2017-08-20
权力的游戏 第五季/冰与火之歌:权力的游戏.第五季全集.Game.of.Thrones.S05E01-10.HD1080P.X264.AAC.english.CHS-ENG.Mp4Ba 23.48 GB 2017-08-19
权力的游戏 第五季/Game.of.Thrones.S05E02.HDTV.x264-Xclusive4iPT 370.89 MB 2017-08-19
权力的游戏 第五季/冰与火之歌:权力的游戏.第五季全集.Game.of.Thrones.S05E01-10.HD1080P.X264.AAC.english.CHS-ENG.Mp4Ba 23.48 GB 2017-08-19
权力的游戏 第五季/冰与火之歌:权力的游戏.第五季全集.Game.of.Thrones.S05E01-10.HD1080P.X264.AAC.english.CHS-ENG.Mp4Ba 23.48 GB 2017-08-17
权力的游戏 第五季/Game Of Thrones S05E01 1080p 5.1Ch Web-DL ReEnc DeeJayAhmed 666.80 MB 2017-08-16
权力的游戏 第五季/冰与火之歌:权力的游戏.第五季全集.Game.of.Thrones.S05E01-10.HD1080P.X264.AAC.english.CHS-ENG.Mp4Ba 23.48 GB 2017-08-16
权力的游戏 第五季/Game of Thrones. Season 5 (2015) WEB-DLRip [Ideafilm] 2.05 GB 2017-08-16
权力的游戏 第五季/GAME_OF_THRONES_2015_S05_RUS_UKR_ENG[Amedia_AlexFilm_LostFilm_ FOX_UATEAM]_H264_DD5.1_Nikolai.Baranov_HDTVRip-AVC_1080p 40.14 GB 2017-08-15
权力的游戏 第五季/Game.of.Thrones.S05E08.HDTV.x264-KILLERS[ettv] 448.39 MB 2017-08-14
权力的游戏 第五季/Game.of.Thrones.S05E00.A.Day.in.the.Life.720p.HDTV.x264-Ktplanet.mkv 926.10 MB 2017-08-13
权力的游戏 第五季/Game of Thrones - 5ª Temporada (2015)[720p] 6.35 GB 2017-08-12
权力的游戏 第五季/Game Of Thrones S05E10 720p 5.1Ch HDTV ReEnc DeeJayAhmed 491.68 MB 2017-08-11
权力的游戏 第五季/Game.of.Thrones.S05E09.720p.HDTV.x264-0SEC 1.44 GB 2017-08-09
权力的游戏 第五季/Game.of.Thrones.S05E07.HDTV.x264-SNEAkY 389.92 MB 2017-08-09
权力的游戏 第五季/Game.of.Thrones.S05E01.HDTV.x264-ASAP[rarbg] 305.35 MB 2017-08-06
权力的游戏 第五季/Game.Of.Thrones.S05E02.1080p.HDTV.x264-BATV[rarbg] 4.71 GB 2017-08-04
权力的游戏 第五季/Game.of.Thrones.S05E01.480p.HDTV.x264-Belex-Dual.Audio 432.40 MB 2017-08-03
权力的游戏 第五季/Game of Thrones S05E07 HDTV NL Subs 324.19 MB 2017-08-03
权力的游戏 第五季/[ www.Cpasbien.pw ] Game.of.Thrones.S05E04.FASTSUB.VOSTFR.WEBRip.XviD-TeamSuW.avi 415.74 MB 2017-08-02
权力的游戏 第五季/[ www.OMGTORRENT.com ] Game.Of.Thrones.S05E02.PROPER.VOSTFR.HDTV.XviD-ATeam.avi 577.71 MB 2017-08-02
权力的游戏 第五季/Game of Thrones 2015 - 6ª Temporada Completa [1080p] [HDTV] WWW.BLUDV.COM 10.10 GB 2017-08-01
权力的游戏 第五季/Game.of.Thrones.S05E01.HDTVRip.Ukr.uateam.tv.avi 509.57 MB 2017-07-29
权力的游戏 第五季/Game of Thrones S05E06 720p HDTV x264-ArMo 428.95 MB 2017-07-29
权力的游戏 第五季/Game.of.Thrones.S05E07.720p.HDTV.x264-0SEC[rarbg] 1.31 GB 2017-07-25
权力的游戏 第五季/Game of Thrones S05E08 Hardhome (1080p HDTV x265 10bit Joy) 472.67 MB 2017-07-24
权力的游戏 第五季/Game of Thrones. Season 5 (2015) WEB-DLRip [Ideafilm] 950.89 MB 2017-07-24
权力的游戏 第五季/Game.of.Thrones.S05E00.HDTV.720.Subtitulado.Esp.SC.avi 248.88 MB 2017-07-24
权力的游戏 第五季/[ www.Cpasbien.pw ] Game.of.Thrones.S05E07.VOSTFR.HDTVRip.XviD-GODSPACE.avi 461.45 MB 2017-07-23
权力的游戏 第五季/Game of Thrones S05E01 720p HDTV x264 AAC - Ozlem 425.72 MB 2017-07-22
权力的游戏 第五季/冰与火之歌:权力的游戏.第五季全集.Game.of.Thrones.S05E01-10.HD1080P.X264.AAC.english.CHS-ENG.Mp4Ba 23.48 GB 2017-07-12
权力的游戏 第五季/Game.of.Thrones.S05E10.HDTV.x264.0SEC.DUBLADO-BELEX 455.78 MB 2017-07-12
权力的游戏 第五季/Game.of.Thrones.S05E05.HDTVRip.Ukr.uateam.tv.avi 450.50 MB 2017-07-12
权力的游戏 第五季/Game.of.Thrones.S05E05.720p.HDTV.DUB.Eng.Subs.CasStudio.mkv 1.27 GB 2017-07-11
权力的游戏 第五季/[ www.CpasBien.pw ] Game.Of.Thrones.S05E01.FRENCH.HDTV.XviD.SVR.avi 415.85 MB 2017-07-11
权力的游戏 第五季/Game of Thrones - S05E04 - The Sons of the Harpy.mp4 587.43 MB 2017-07-06
权力的游戏 第五季/Game.of.Thrones.S05E03.HDTV.x264-Xclusive.mp4 332.54 MB 2017-06-30
权力的游戏 第五季/Game.of.Thrones.S05E10.1080p.HDTV.DD5.1.x264-ITSat 2.40 GB 2017-06-30
权力的游戏 第五季/Game.of.Thrones.S05E07.HDTV.XviD-Dual 435.95 MB 2017-06-30
权力的游戏 第五季/Game of Thrones S05E08 HDTV 448.43 MB 2017-06-30
权力的游戏 第五季/Game of Thrones S05E01 HDTV XviD-FUM[ettv] 448.26 MB 2017-06-29
权力的游戏 第五季/Game.of.Thrones.S05E03.HDTV.720.Subtitulado.Esp.SC.avi 573.77 MB 2017-06-29
权力的游戏 第五季/Game.of.Thrones.S05E02.The.House.of.Black.and.White.720p.WEB-DL.AAC-SS -={SPARROW}=- 490.70 MB 2017-06-29
权力的游戏 第五季/Game.of.Thrones.S05E10.720p.HDTV.x264-IMMERSE[rarbg] 1.09 GB 2017-06-29
权力的游戏 第五季/Game.of.Thrones.S05E08.Hardhome.720p.WEB-DL.2CH.x265.HEVC-PSA.mkv 315.85 MB 2017-06-29
权力的游戏 第五季/[ www.OMGTORRENT.com ] Game.Of.Thrones.S05E01.PROPER.VOSTFR.HDTV.XviD-ATeam.avi 579.13 MB 2017-06-29
权力的游戏 第五季/Game.of.Thrones.S05E01.720p.HDTV.x264-IMMERSE[rarbg] 1013.49 MB 2017-06-28
权力的游戏 第五季/Game.of.Thrones.S05E09.HDTV.x264-ASAP.[VTV].mp4 439.32 MB 2017-06-28
权力的游戏 第五季/Game.of.Thrones.S05E08.1080p.HDTV.x264-BATV 4.97 GB 2017-06-28
权力的游戏 第五季/Game.of.Thrones.S05E02.The.House.of.Black.and.White.1080p.WEB-DL.DD5.1.H.264-NTb[rarbg] 2.07 GB 2017-06-28
权力的游戏 第五季/Game.of.Thrones.S05E04.HDTV.XviD-AFG.avi 404.77 MB 2017-06-27
权力的游戏 第五季/Game.of.Thrones.S05E11.HDTV.x264-KILLERS.mp4 400.04 MB 2017-06-27
权力的游戏 第五季/Game.of.Thrones.S05E09.PROPER.HDTV.x264-KILLERS.mp4 471.50 MB 2017-06-27
权力的游戏 第五季/Game.of.Thrones.S05E06.720p.HDTV.x264-Belex-Dual.Audio 1.08 GB 2017-06-27
权力的游戏 第五季/Game of Thrones (2015) S05E04 HDTV 1080p NL Subs SAM TBS 2.59 GB 2017-06-26
权力的游戏 第五季/Game Of Thrones S05E03 HDTVMux 720p H264 Ita Ac3 2.0 Eng Ac3 5.1 Sub Ita Eng By BlackBit.mkv 1.68 GB 2017-06-26
权力的游戏 第五季/Game.of.Thrones.S05E06.720p.HDTV.x264-DON [MovietaM] 2.41 GB 2017-06-26
权力的游戏 第五季/Game.Of.Thrones.S05E06.1080p.HDTV.x264.DUAL-pia 2.33 GB 2017-06-26
权力的游戏 第五季/Game.of.Thrones.S05E02.1080p.BluRay.X265-HEVC.Sammy.mp4 800.21 MB 2017-06-26
权力的游戏 第五季/Game.of.Thrones.S05E06.HDTV.x264-ASAP[rarbg] 334.91 MB 2017-06-26
权力的游戏 第五季/Game.of.Thrones.S05E01.INTERNAL.HDTV.x264-BATV[rarbg] 319.34 MB 2017-06-26
权力的游戏 第五季/Game.of.Thrones.S05E04.Sons.of.the.Harpy.720p.WEB-DL.AAC-SS -={SPARROW}=- 445.12 MB 2017-06-25
权力的游戏 第五季/权力的游戏.Game.of.Thrones.S05E09.中英字幕.WEB-HR.AAC.1024X576.x264.mp4 499.01 MB 2017-06-24
权力的游戏 第五季/冰与火之歌:权力的游戏.第五季全集.Game.of.Thrones.S05E01-10.HD1080P.X264.AAC.english.CHS-ENG.Mp4Ba 23.48 GB 2017-06-24
权力的游戏 第五季/[ www.Cpasbien.pw ] Game.Of.Thrones.S05E03.VOSTFR.HDTV.XviD-ATeam.avi 668.35 MB 2017-06-24
权力的游戏 第五季/Game.of.Thrones.2015.S05.E09.HDTV.XviD-FUM 447.93 MB 2017-06-24
权力的游戏 第五季/Game.of.Thrones.S05E01.1080i.HDTV.Rus.Eng.CasStudio.mkv 4.92 GB 2017-06-24
权力的游戏 第五季/Game.of.Thrones.S05E07.INTERNAL.HDTV.x264-BATV[ettv] 379.99 MB 2017-06-24
权力的游戏 第五季/[ www.Cpasbien.pw ] Game.Of.Thrones.S05E02.VOSTFR.720p.HDTV.x264-ATeam.mkv 1.08 GB 2017-06-23
权力的游戏 第五季/Game.of.Thrones.S05E04.INTERNAL.HDTV.x264-BATV[ettv] 366.61 MB 2017-06-23
权力的游戏 第五季/Game of Thrones S05E04 HDTV XviD-FUM[ettv] 424.45 MB 2017-06-23
权力的游戏 第五季/Game.of.Thrones.S05E02.720p.HDTV.x264-IMMERSE [GloDLS] 1.21 GB 2017-06-22
权力的游戏 第五季/Game.of.Thrones.S05E06.720p.HDTV.DUB.Eng.Subs.CasStudio.mkv 1.17 GB 2017-06-21
权力的游戏 第五季/Game.of.Thrones.S05E10.1080p.HDTV.DD5.1.x264-SNEAkY 4.58 GB 2017-06-21
权力的游戏 第五季/Game.of.Thrones.S05E01-E05.1080p.HDTV.x264-BATV 22.81 GB 2017-06-21
权力的游戏 第五季/Game of Thrones S05E05 Kill the Boy (1080p HDTV x265 Joy) 444.35 MB 2017-06-21
权力的游戏 第五季/[ www.CpasBien.pw ] Game.Of.Thrones.S05E02.FRENCH.HDTV.XviD-ARK01.avi 550.55 MB 2017-06-20
权力的游戏 第五季/Game.of.Thrones.S05E05.1080p.HDTV.x264-SNEAkY 3.77 GB 2017-06-20
权力的游戏 第五季/Game.of.Thrones.S05E05.HDTV.x264-ASAP 299.32 MB 2017-06-20
权力的游戏 第五季/Game Of Thrones S05-E00 (2015) - Special - XViD DD5.1 NLSubs NLtoppers 335.55 MB 2017-06-19
权力的游戏 第五季/Game.of.Thrones.S05E04.HDTV.Ukr.Eng.uateam.mkv 1.39 GB 2017-06-17
权力的游戏 第五季/Game of Thrones S05E00 1080p HDTV [G2G.fm].mp4 635.16 MB 2017-06-16
权力的游戏 第五季/Game.of.Thrones.S05E04.1080p.HDTV.x264-BATV[rarbg] 4.03 GB 2017-06-15
权力的游戏 第五季/[ www.OMGTORRENT.com ] Game.Of.Thrones.S05E06.VOSTFR.HDTV.XviD-ATeam.avi 599.89 MB 2017-06-15
权力的游戏 第五季/Game.of.Thrones.S05E01.1080p.HDTV.x264-BATV[rarbg] 5.06 GB 2017-06-12
权力的游戏 第五季/Game.of.Thrones.S05E01.720p.HDTV.x264-DON [MovietaM] 2.32 GB 2017-06-12
权力的游戏 第五季/Game of Thrones S05E01-1080p.mkv 1.23 GB 2017-06-11
权力的游戏 第五季/Game.of.Thrones.S05E07.1080p.WEB-DL.DD5.1.H.264-NTb[rarbg] 2.13 GB 2017-06-09
权力的游戏 第五季/Game.of.Thrones.S05E10.HDTV.x264-KILLERS[rarbg] 419.47 MB 2017-06-09
权力的游戏 第五季/Game.of.Thrones.S05E08.PROPER.HDTV.XviD-AFG.avi 498.47 MB 2017-06-08
权力的游戏 第五季/Game.of.Thrones.S05E10.rus.LostFilm.TV.avi 656.73 MB 2017-06-02
权力的游戏 第五季/Game.of.Thrones.S05E01.FRENCH.1080p.WEB-DL.H265-ARK01.mkv 645.11 MB 2017-06-01
权力的游戏 第五季/Game.of.Thrones.S05E08.HDTV.x264-KILLERS.mp4 448.38 MB 2017-05-31
权力的游戏 第五季/Game of Thrones S05E05 720p HDTV x264 AAC - Ozlem 445.76 MB 2017-05-30
权力的游戏 第五季/Game.of.Thrones.S05E10.HDTV.720.Subtitulado.Esp.SC.avi 597.54 MB 2017-05-30
权力的游戏 第五季/Game.of.Thrones.2015.S05.E06.HDTV.XviD-FUM 449.39 MB 2017-05-29
权力的游戏 第五季/Game.of.Thrones.S05E04.SWESUB.HDTV.XviD-Haggebulle 526.70 MB 2017-05-29
权力的游戏 第五季/Game.of.Thrones.S05E00.A.Day.in.the.Life.HDTV.XviD-AFG 209.35 MB 2017-05-29
权力的游戏 第五季/冰与火之歌:权力的游戏.Game.of.Thrones.S05E09.HD720P.X264.AAC.english.CHS-ENG.Mp4Ba 1008.50 MB 2017-05-29
权力的游戏 第五季/GAME_OF_THRONES_2015_S05_RUS[AlexFilm]_DD5.1_x264_Nikolai.Baranov_HDTVRip-AVC_(1080p) 47.63 GB 2017-05-28
权力的游戏 第五季/Game.of.Thrones.S05E09.HDTV.720p.DUB.[qqss44].mkv 1.51 GB 2017-05-28
权力的游戏 第五季/Game.of.thrones.S05E10.hdtv.XviD - AFG 485.11 MB 2017-05-27
权力的游戏 第五季/Game.of.Thrones.S05E06.Unbowed.Unbent.Unbroken.720p.WEB-DL.AAC-SS -={SPARROW}=- 474.03 MB 2017-05-27
权力的游戏 第五季/[ www.CpasBien.pw ] Game.Of.Thrones.S05E10.FRENCH.LD.WEB-DL.XviD.SVR.avi 549.83 MB 2017-05-27
权力的游戏 第五季/Game of Thrones.S05E04.720p.PL.H3Q 1.38 GB 2017-05-25
权力的游戏 第五季/Game.of.Thrones.S05E02.HDTV.x264-Xclusive[rarbg] 370.88 MB 2017-05-23
权力的游戏 第五季/Game Of Thrones S05E09 HDTVMux 720p H264 Ita Ac3 2.0 Eng Ac3 5.1 Sub Ita Eng By BlackBit.mkv 1.51 GB 2017-05-21
权力的游戏 第五季/Game.of.Thrones.S05E09.FRENCH.1080p.WEB-DL.DD5.1.H264-SVR.mkv 1.97 GB 2017-05-17
权力的游戏 第五季/Game.of.Thrones.S05E06.HDTVRip.Ukr.uateam.tv.avi 497.28 MB 2017-05-15
权力的游戏 第五季/Game of Thrones - Complete Season 5 (2015) [HDTV x264] [English-Spanish Subtitles] [MP4] 4.00 GB 2017-05-11
权力的游戏 第五季/Game.of.Thrones.S05E10.720p.HDTV.x264-0SEC 1.35 GB 2017-05-01
权力的游戏 第五季/Game.of.Thrones.S05E10.720p.HDTV.x264-Belex-Dual.Audio 1.43 GB 2017-04-29
权力的游戏 第五季/[ www.Cpasbien.pw ] Game.of.Thrones.S05E03.FASTSUB.VOSTFR.HDTV.XviD-SVR.avi 410.09 MB 2017-04-29
权力的游戏 第五季/Game.of.Thrones.S05E03.HDTV.x264-Xclusive 341.65 MB 2017-04-28
权力的游戏 第五季/Game.of.Thrones.S05E07.HDTV.x264 350.67 MB 2017-04-27
权力的游戏 第五季/Game of Thrones S05E02-1080p.mkv 1.22 GB 2017-03-14
权力的游戏 第五季/Game.of.Thrones.S05E03.HDTV.XviD.HUN-SLN 489.49 MB 2017-03-14
权力的游戏 第五季/Game of Thrones (Season 5-6) (2015-2016) BDRip 1080p [UKR_ENG. SUB_URK_ENG] [Hurtom] 105.78 GB 2017-03-14
权力的游戏 第五季/Game.of.Thrones.S05E06.HDTV.XviD-iFT 481.16 MB 2017-03-13
权力的游戏 第五季/Game.of.Thrones.S05E00.A.Day.in.the.Life.HDTV.x264-BATV[ettv] 262.43 MB 2017-03-13
权力的游戏 第五季/Game.Of.Thrones.S05E02.INTERNAL.HDTV.x264-BATV.mp4 398.10 MB 2017-03-07
权力的游戏 第五季/Game.of.Thrones.S05E04.HDTV.x264-Xclusive 341.88 MB 2017-03-03
权力的游戏 第五季/[AgusiQ-Torrents.pl] Game.of.Thrones.S05E01.PL.576p-MORS [AgusiQ] 862.60 MB 2017-03-02
权力的游戏 第五季/[AgusiQ-Torrents.pl] Game.of.Thrones.S05E01.PL.480p-H3Q [AgusiQ] 826.80 MB 2017-02-03
权力的游戏 第五季/Game.of.Thrones.S05E02.480p.HDTV.x264-Belex-Dual.Audio 461.38 MB 2017-01-31
权力的游戏 第五季/Game.of.Thrones.S05E10.1080i.HDTV.DUB.Eng.Subs.CasStudio.mkv 5.88 GB 2017-01-28
权力的游戏 第五季/Game of Thrones - S05E04 - 720P - SweSub.mp4 581.88 MB 2017-01-27
权力的游戏 第五季/Game.of.Thrones.S05E10.720p.HDTV.x264-0SEC 1.35 GB 2017-01-25
权力的游戏 第五季/Game.of.Thrones.S05E01.HDTV.Ukr.Eng.uateam.mkv 2.47 GB 2017-01-25
权力的游戏 第五季/Game.of.Thrones.S05E08.HDTV.720.Subtitulado.Esp.SC.avi 575.92 MB 2017-01-24
权力的游戏 第五季/Game.of.Thrones.S05E00.A.Day.in.the.Life.HDTV.XviD-AFG 209.35 MB 2016-12-14
权力的游戏 第五季/Game of Thrones 2015 - 6ª Temporada Completa [HDTV] WWW.BLUDV.COM 5.39 GB 2016-12-01
权力的游戏 第五季/Game.of.Thrones.S05E10.720p.HDTV.x264-Belex-Dual.Audio 1.44 GB 2016-10-11
权力的游戏 第五季/Game.of.Thrones.S05E05.1080p.HDTV.x264-BATV 4.39 GB 2016-09-23
权力的游戏 第五季/[AgusiQ-Torrents.pl] Game.of.Thrones.S05E01.PL-KiT [AgusiQ] 448.88 MB 2016-09-18
权力的游戏 第五季/[ www.OMGTORRENT.com ] Game.Of.Thrones.S05E07.FASTSUB.VOSTFR.HDTV.XviD-ADDiCTiON.avi 551.44 MB 2016-09-16
权力的游戏 第五季/Game.of.Thrones.S05E07.720p.HDTV.x264-IMMERSE[rarbg] 1.11 GB 2016-09-04
权力的游戏 第五季/Game of Thrones S05E02 1080p HDTV x264 AC3 TiTAN [GloDLS] 1.85 GB 2016-09-03
权力的游戏 第五季/Game.of.Thrones.S05E11.HDTV.x264-ASAP.mp4 342.69 MB 2016-08-16
权力的游戏 第五季/Game.of.Thrones.S05E09.mp4 154.71 MB 2016-07-29
权力的游戏 第五季/Game of Thrones 2015 - 6ª Temporada Completa [WEB-DL] WWW.BLUDV.COM 6.19 GB 2016-07-18
权力的游戏 第五季/Game.of.Thrones.2015.S05.E08.HDTV.XviD-FUM 491.32 MB 2016-07-18
权力的游戏 第五季/[ www.OMGTORRENT.com ] Game.of.Thrones.S05E00.FASTSUB.VOSTFR.HDTV.XviD-ATN.avi 211.04 MB 2016-07-17
权力的游戏 第五季/Game.of.Thrones.S05E02.1080i.HDTV.DUB.Eng.Subs.CasStudio.mkv 5.49 GB 2016-07-15
权力的游戏 第五季/Game of Thrones S05E02 1080p HDTV h.264 DD5.1-CtrlHD 1.98 GB 2016-07-10
权力的游戏 第五季/Game of Thrones S05E05 1080p HDTV [G2G.fm].mp4 1.02 GB 2016-07-09
权力的游戏 第五季/Game.of.Thrones.cloth.S05E03.720p.HDTV.93side.mkv 908.36 MB 2016-07-06
权力的游戏 第五季/Game.of.Thrones.S05E04.HDTV.720.Subtitulado.Esp.SC.avi 486.37 MB 2016-07-05
权力的游戏 第五季/Game.of.Thrones.S05E07.INTERNAL.HDTV.x264-BATV.mp4 379.99 MB 2016-07-05
权力的游戏 第五季/权力的游戏.Game.of.Thrones.S05E08.中英字幕.HDTVrip.1024x576.mp4 569.14 MB 2016-07-04
权力的游戏 第五季/Game of Thrones S05E10 Mothers Mercy (1080p x265 10bit Joy) 474.45 MB 2016-07-03
权力的游戏 第五季/冰与火之歌:权力的游戏.Game.of.Thrones.S05E03.HD720P.X264.AAC.english.CHS-ENG.Mp4Ba 1.12 GB 2016-07-03
权力的游戏 第五季/Game.of.Thrones.S05E07.The.Gift.720p.WEB-DL.AAC-SS -={SPARROW}=- 519.69 MB 2016-07-02
权力的游戏 第五季/Game.of.Thrones.S05E06.Unbowed.Unbent.Unbroken.1080p.WEB-DL.DD5.1.H264-RARBG 1.96 GB 2016-07-02
权力的游戏 第五季/Game.of.Thrones.S05E05.Kill.the.Boy.720p.WEB-DL.AAC-SS -={SPARROW}=- 500.59 MB 2016-07-02
权力的游戏 第五季/权力的游戏.Game.of.Thrones.S05E06.中英字幕.HDTVrip.1024x576.mp4 512.75 MB 2016-07-01
权力的游戏 第五季/Game.of.Thrones.S05E07.HDTV.720p.x264.AC3-CnSCG 1.50 GB 2016-07-01
权力的游戏 第五季/[破烂熊][权力游戏.Game.Of.Thrones.S05E09].rmvb 240.82 MB 2016-06-30
权力的游戏 第五季/Game.of.Thrones.S05E09.1080p.HDTV.x264-BATV[rarbg] 4.49 GB 2016-06-29
权力的游戏 第五季/Game.of.Thrones.S05E01.HDTV.x264-ASAP.[VTV].mp4 305.35 MB 2016-06-29
权力的游戏 第五季/Game.of.Thrones.S05E01.720p.HDTV.x264-IMMERSE [GloDLS] 1013.50 MB 2016-06-28
权力的游戏 第五季/Game.of.Thrones.S05E06.720p.HDTV.DUB.Eng.Subs.CasStudio.mkv 1.17 GB 2016-06-20
权力的游戏 第五季/Game.of.Thrones.S05E00.A.Day.in.the.Life.HDTV.x264-BATV.mp4 262.43 MB 2016-06-20
权力的游戏 第五季/Game.of.Thrones.S05E04.720p.HDTV.x264-Belex-Dual.Audio 1.10 GB 2016-06-20
权力的游戏 第五季/Game.of.Thrones.S05E10.720p.HDTV.x264-IMMERSE 1.09 GB 2016-06-19
权力的游戏 第五季/Game.Of.Thrones.S05E05.720p.HDTV.x264-0SEC[GloDLS] 1.15 GB 2016-06-19
权力的游戏 第五季/Game of Thrones S05E10 720p HDTV x264 AAC - Ozlem 473.50 MB 2016-06-18
权力的游戏 第五季/Game.of.Thrones.S05E09.The.Dance.of.Dragons.1080p.WEB-DL.DD5.1.H.264-RARBG 1.93 GB 2016-06-18
权力的游戏 第五季/Game.of.Thrones.S05E10.Mother's.Mercy.720p.WEB-DL.AAC-SS -={SPARROW}=- 531.98 MB 2016-06-18
权力的游戏 第五季/Game.of.Thrones.S05E05.INTERNAL.HDTV.x264-BATV[rarbg] 308.30 MB 2016-06-15
权力的游戏 第五季/game.of.thrones.S05E01 1080p Rankked.mp4 292.74 MB 2016-06-15
权力的游戏 第五季/Game.of.Thrones.2015.S05.E01.WEBRip.XviD-FUM 424.11 MB 2016-06-15
权力的游戏 第五季/Game.of.Thrones.S05E01-04.HDTV.x264-Xclusive 1.31 GB 2016-06-14
权力的游戏 第五季/权力的游戏.Game.of.Thrones.S05E08.中英字幕.HR-HDTV.AAC.1024X576.x264.mp4 573.08 MB 2016-06-12
权力的游戏 第五季/Game of Thrones S05E06 Unbowed, Unbent, Unbroken (1080p HDTV x265 Joy) 440.02 MB 2016-06-11
权力的游戏 第五季/权力的游戏.Game.of.Thrones.S05E01.中英字幕.WEB-HR.AAC.1024X576.x264.mp4 497.52 MB 2016-06-10
权力的游戏 第五季/Game.of.Thrones.S05E09.720p.HDTV.x264-0SEC 1.49 GB 2016-06-09
权力的游戏 第五季/Game Of Thrones S05E06 HDTVMux 720p H264 Ita Ac3 2.0 Eng Ac3 5.1 Sub Ita Eng By BlackBit.mkv 1.60 GB 2016-06-09
权力的游戏 第五季/Game.of.Thrones.S05E02.PROPER.720p.HDTV.x264-BATV[rarbg] 1.48 GB 2016-06-09
权力的游戏 第五季/Game.of.Thrones.S05E09.HDTV.x264-ASAP[rarbg] 439.33 MB 2016-06-07
权力的游戏 第五季/Game.of.Thrones.S05E01.SWESUB.HDTV.XviD-Haggebulle 412.62 MB 2016-06-06
权力的游戏 第五季/Game.Of.Thrones.S05E04.PROPER.720p.HDTV.x264-0SEC[rarbg] 1.26 GB 2016-06-06
权力的游戏 第五季/Game.of.Thrones.S05E04.WEBRip.XviD-FUM.avi 422.45 MB 2016-06-06
权力的游戏 第五季/Game.of.Thrones.S05E09.1080p.HDTV.6CH.x265.HEVC-PSA.mkv 773.29 MB 2016-06-05
权力的游戏 第五季/Game.of.Thrones.S05E10.Mothers.Mercy.1080p.WEB-DL.DD5.1.H.264-RARBG 2.15 GB 2016-06-04
权力的游戏 第五季/Game.of.Thrones.S05E09.720p.HDTV.x264-0SEC.DUB-ZKT.mkv 1.37 GB 2016-06-04
权力的游戏 第五季/Game.of.Thrones.S05E09.HDTV.x264-KILLERS.mp4 427.63 MB 2016-06-04
权力的游戏 第五季/Game.of.Thrones.S05E04.HDTV.x265.HEVC_INC 118.08 MB 2016-06-03
权力的游戏 第五季/Game.of.Thrones.S05E08.720p.HDTV.x264-0SEC.mkv 1.50 GB 2016-06-03
权力的游戏 第五季/Game.of.Thrones.S05E02.720p.HDTV.x264-Belex-Dual.Audio 1.56 GB 2016-06-01
权力的游戏 第五季/权力的游戏.Game.of.Thrones.S05E10.中英字幕.HDTVrip.1024x576.mp4 583.84 MB 2016-06-01
权力的游戏 第五季/Game.of.Thrones.S05E11.HDTV.x264-KILLERS.mp4 400.04 MB 2016-06-01
权力的游戏 第五季/权利的游戏.Game.of.Thrones.S05E01.720p.HDTV.AC3.x264.双语字幕-深影字幕组.mkv 694.83 MB 2016-06-01
权力的游戏 第五季/Game.of.Thrones.S05E10.720p.HDTV.x264-0SEC.mkv 1.35 GB 2016-05-30
权力的游戏 第五季/Game.of.Thrones.S05E03.HDTV.x264-KILLERS-DUAL-ZKT 438.27 MB 2016-05-29
权力的游戏 第五季/Game.Of.Thrones.S05E03.High.Sparrow.HDTV.x264-Arvi07 165.16 MB 2016-05-28
权力的游戏 第五季/Game.of.Thrones.S05E09.HDTV.x264-KILLERS.mp4 427.63 MB 2016-05-27
权力的游戏 第五季/Game.of.Thrones.S05E08.720p.HDTV.x264-0SEC [B2RIDE] 1.50 GB 2016-05-26
权力的游戏 第五季/Game Of Thrones S05E09 The Dance Of Dragons 1080p WEB-DL 10bit AAC5.1 HEVC x265 TitLip.mkv 399.93 MB 2016-05-25
权力的游戏 第五季/Game.of.Thrones.S05E01.The.Wars.to.Come.1080p.WEB-DL.DD5.1.H.264-NTb[rarbg] 1.92 GB 2016-05-24
权力的游戏 第五季/权力的游戏.Game.of.Thrones.S05E08.720p.HDTV.AC3.x264.双语字幕-深影字幕组.mkv 785.36 MB 2016-05-19
权力的游戏 第五季/[ www.Cpasbien.pw ] Game.of.Thrones.S05E06.FASTSUB.VOSTFR.HDTV.XviD-ZT.avi 353.04 MB 2016-05-17
权力的游戏 第五季/Game of Thrones S05E08 720p HDTV x264 AAC - Ozlem 472.15 MB 2016-05-16
权力的游戏 第五季/Game.of.Thrones.S05E05.HDTV.x264-ASAP[ettv] 299.32 MB 2016-05-15
权力的游戏 第五季/Game of Thrones S05E09 1080p BluRay X265-HEVC AAC 5.1 Sammy.mp4 792.80 MB 2016-05-15
权力的游戏 第五季/Game.of.Thrones.S05E09.VOSTFR.1080p.HDTV.DD5.1.x264-AryaStark 4.49 GB 2016-05-15
权力的游戏 第五季/Game.of.Thrones.S05E07.HDTV.720.Subtitulado.Esp.SC.avi 563.78 MB 2016-05-13
权力的游戏 第五季/Game.Of.Thrones.S05E05.720p.HDTV.x264-0SEC[rarbg] 1.15 GB 2016-05-12
权力的游戏 第五季/Game.Of.Thrones.S05E03.720p.HDTV.x264-0SEC.Dublado-ZKT.BRSHARES.com.mkv 997.78 MB 2016-05-11
权力的游戏 第五季/Game.of.Thrones.S05E07.1080p.HDTV.x264-BATV[rarbg] 5.36 GB 2016-05-11
权力的游戏 第五季/Game.of.Thrones.S05E10.Mothers.Mercy.720p.WEB-DL.DD5.1.H.264-NTb[rarbg] 1.81 GB 2016-05-10
权力的游戏 第五季/Game Of Thrones S05E06 720p 5.1Ch HDTV ReEnc DeeJayAhmed 441.49 MB 2016-05-09
权力的游戏 第五季/Game.of.Thrones.S05E08.Hardhome.1080p.WEB-DL.6CH.x265.HEVC-PSA.mkv 791.88 MB 2016-05-09
权力的游戏 第五季/Game of Thrones S05E10 720p HDTV x264-0SEC[PsypherTV] 1.35 GB 2016-04-20
权力的游戏 第五季/Game.of.Thrones.S05E10.HDTV.x264.mp4 419.46 MB 2016-04-19
权力的游戏 第五季/Game.of.Thrones.S05E01.1080p.BluRay.X265-HEVC.Sammy.mp4 756.09 MB 2016-04-18
权力的游戏 第五季/Game of Thrones S05E07 The Gift (1080p x265 Joy) 480.99 MB 2016-04-18
权力的游戏 第五季/Game.of.Thrones.S05E06.VOSTFR.1080p.HDTVRip.MPEG4-AVC.AC3-NoTeam .mkv 1.21 GB 2016-04-17
权力的游戏 第五季/Game of Thrones S05E09 The Dance of Dragons (1080p HDTV x265 10bit Joy) 412.62 MB 2016-04-17
权力的游戏 第五季/Game.of.Thrones.S05E00.A.Day.in.the.Life.720p.HDTV.x264-BATV.mkv 926.02 MB 2016-04-17
权力的游戏 第五季/Game of Thrones S05E06 2015 HDRip 720p-SANTi 281.38 MB 2016-04-16
权力的游戏 第五季/Game.of.Thrones.S05E09.INTERNAL.HDTV.x264-BATV[ettv] 490.33 MB 2016-04-16
权力的游戏 第五季/Game.of.Thrones.S05E10.HDTV.x264-ASAP.mp4 342.69 MB 2016-04-16
权力的游戏 第五季/Game of Thrones S05E07 2015 HDRip 720p-DASH 259.23 MB 2016-04-15
权力的游戏 第五季/Game.of.Thrones.S05E11.HDTV.x264-KILLERS.mp4 400.04 MB 2016-04-14
权力的游戏 第五季/Game.of.Thrones.S05E03.1080p.HDTV.x264.NL.Subs-LD.mp4 1.15 GB 2016-04-14
权力的游戏 第五季/Game of Thrones S05E05 1080p BluRay X265-HEVC AAC 5.1 Sammy.mp4 841.11 MB 2016-04-14
权力的游戏 第五季/Game of Thrones S05E02 HDTV Dual Audio 446.77 MB 2016-04-11
权力的游戏 第五季/Game.of.Thrones.S05E06.HDTV.x264-ASAP.mp4 334.90 MB 2016-04-08
权力的游戏 第五季/[ www.CpasBien.pw ] Game.Of.Thrones.S05E03.FRENCH.HDTV.XviD-SVR.avi 475.21 MB 2016-04-07
权力的游戏 第五季/Game Of Thrones S05E04 720p 5.1Ch HDTV ReEnc DeeJayAhmed 416.37 MB 2016-04-07
权力的游戏 第五季/Game.of.Thrones.S05E10.720p.HDTV.x264-0SEC[rarbg] 1.35 GB 2016-04-07
权力的游戏 第五季/Game.of.Thrones.S05E01.HDTV.x265.HEVC_INC 93.76 MB 2016-04-07
权力的游戏 第五季/Game.of.Thrones.S05E02.720p.WEB-DL.AAC.5.1.H264.KIMO 599.87 MB 2016-04-07
权力的游戏 第五季/Game.of.Thrones.S05E10.720p.HDTV.x264-IMMERSE 1.10 GB 2016-04-05
权力的游戏 第五季/Game.of.Thrones.S05E10.720p.HDTV.DD5.1.x264-SNEAkY 1.88 GB 2016-03-23
权力的游戏 第五季/Game.of.Thrones.S05E08.720p.HDTV.x264-0SEC[rarbg] 1.50 GB 2016-03-23
权力的游戏 第五季/Game of Thrones S05E06 1080p BluRay X265-HEVC AAC 5.1 Sammy.mp4 764.66 MB 2016-03-09
权力的游戏 第五季/[ www.CpasBien.pw ] Game.of.Thrones.S05E05.FRENCH.HDTV.XviD-ARK01.avi 550.12 MB 2016-03-09
权力的游戏 第五季/[权利的游戏第五季]Game.of.Thrones.2015.HDTV.720p.x264.AC3-CnSCG 15.07 GB 2016-02-14
权力的游戏 第五季/Game.of.Thrones.S05E06.HDTV.720.Subtitulado.Esp.SC.avi 531.40 MB 2016-02-12
权力的游戏 第五季/- [ www.scenetime.com ]Game.of.Thrones.S05E04.HDTV.XviD-AFG 404.77 MB 2016-02-12
权力的游戏 第五季/Game.of.Thrones.S05E10.HDTV.x264-KILLERS[ettv] 419.51 MB 2016-02-08
权力的游戏 第五季/Game of Thrones S05E07 HDTV XviD-FUM[ettv] 490.27 MB 2016-02-01
权力的游戏 第五季/[ www.CpasBien.pw ] Game.Of.Thrones.S05E09.FRENCH.LD.WEB-DL.XviD.SVR.avi 550.39 MB 2016-01-26
权力的游戏 第五季/[ www.CpasBien.pw ] Game.Of.Thrones.S05E10.FRENCH.REPACK.LD.WEB-DL.XviD.SVR.avi 550.51 MB 2016-01-26
权力的游戏 第五季/Game of Thrones (2015) S05E03 HDTV 1080p NL Subs SAM TBS 2.67 GB 2016-01-21
权力的游戏 第五季/[ www.Cpasbien.pw ] Game of Thrones S05E01-04 WEBRip XviD-FUM 1.70 GB 2016-01-18
权力的游戏 第五季/Game.of.Thrones.S05E06.720p.HDTV.x264-IMMERSE 1.06 GB 2016-01-18
权力的游戏 第五季/Game.of.Thrones.S05E08.720p.HDTV.x264-0SEC 1.55 GB 2016-01-18
权力的游戏 第五季/Game.Of.Thrones.S05E03.1080p.HDTV.x264-BATV[rarbg] 4.77 GB 2016-01-18
权力的游戏 第五季/Game.of.Thrones.S05E06.1080p.HDTV.x264-BATV.mkv 4.29 GB 2016-01-18
权力的游戏 第五季/Game.of.Thrones.S05E03.HDTV.x264-Xclusive4iPT.mp4 332.54 MB 2016-01-15
权力的游戏 第五季/[ www.CpasBien.pw ] Game.of.Thrones.S05E06.FRENCH.WEB-DL.XviD-ARK01.avi 550.71 MB 2016-01-13
权力的游戏 第五季/Game.of.Thrones.S05E02.HDTV.x264-Xclusive.mp4 370.88 MB 2016-01-13
权力的游戏 第五季/[ www.Cpasbien.pw ] Game.Of.thrones.S05E01.VOSTFR.HDTV.XviD-ATeam.avi 579.13 MB 2016-01-12
权力的游戏 第五季/Game.of.Thrones.S05E03.HDTV.x264-KILLERS[ettv] 355.23 MB 2016-01-11
权力的游戏 第五季/Game.of.Thrones.S05E05.HDTV.x264-Xclusive.mp4 339.91 MB 2016-01-11
权力的游戏 第五季/Game.of.Thrones.S05E04.HDTV.XviD-AFG.avi 404.77 MB 2016-01-11
权力的游戏 第五季/Game.of.Thrones.S05E03.HDTV.x264-Xclusive[rarbg] 332.54 MB 2016-01-10
权力的游戏 第五季/Game.of.Thrones.S05E06.HDTV.x264-ASAP[ettv] 338.18 MB 2016-01-10
权力的游戏 第五季/Game.of.Thrones.S05E09.PROPER.HDTV.x264-KILLERS[ettv] 471.51 MB 2016-01-09
权力的游戏 第五季/Game.of.Thrones.S05E08.720p.HDTV.x264-Belex-Dual.Audio 1.58 GB 2016-01-09
权力的游戏 第五季/[ www.Cpasbien.pw ] Game.of.Thrones.S05E05.SUBFRENCH.HDTV.XviD-ZT.avi 353.32 MB 2016-01-08
权力的游戏 第五季/[ www.CpasBien.pw ] Game.of.Thrones.S05E07.FRENCH.WEB-DL.XviD-ARK01.avi 550.32 MB 2016-01-08
权力的游戏 第五季/[ www.Cpasbien.pw ] Game.Of.Thrones.S05E03.VOSTFR.720p.HDTV.x264-ATeam.mkv 1.05 GB 2016-01-07
权力的游戏 第五季/[ www.Cpasbien.pw ] Game.of.Thrones.S05E05.SUBFRENCH.720p.HDTV.x264-LiBERTY.cpasbien.pw.mkv 886.13 MB 2016-01-06
权力的游戏 第五季/Game.of.Thrones.S05E06.INTERNAL.720p.HDTV.x264-BATV[rarbg] 1.28 GB 2016-01-06
权力的游戏 第五季/Game.of.Thrones.S05E02.HDTV.XviD-AFG 453.26 MB 2016-01-06
权力的游戏 第五季/Game.of.Thrones.S05E06.720p.HDTV.x264-IMMERSE[rarbg] 1.05 GB 2016-01-06
权力的游戏 第五季/Game.of.Thrones.S05E08.HDTV.x264-ASAP.mp4 324.36 MB 2016-01-06
权力的游戏 第五季/Game of Thrones S05E04 WEBRip XviD-FUM[ettv] 422.45 MB 2016-01-06
权力的游戏 第五季/Game.of.Thrones.S05E01.HDTV.x264-ASAP[ettv] 305.35 MB 2016-01-06
权力的游戏 第五季/Game.of.Thrones.S05E04.1080p.HDTV.6CH.x265.HEVC-PSA.mkv 786.58 MB 2016-01-06
权力的游戏 第五季/Game Of Thrones S05E03 1080p HDTV x264 Dual Audio 4.85 GB 2016-01-06
权力的游戏 第五季/Game.of.Thrones.S05E11.HDTV.x264-KILLERS.mp4 400.04 MB 2016-01-06
权力的游戏 第五季/Game.of.Thrones.S05E10.1080p.HDTV.x264-BATV[rartv] 5.96 GB 2016-01-06
权力的游戏 第五季/[ www.Cpasbien.pw ] Game.of.Thrones.S05E01.FASTSUB.VOSTFR.HDTV.XviD-ZT.avi 352.89 MB 2016-01-06
权力的游戏 第五季/Game.of.Thrones.S05E04.HDTV.x264-Xclusive[rarbg] 341.88 MB 2016-01-06
权力的游戏 第五季/冰与火之歌:权力的游戏.第五季全集.Game.of.Thrones.S05E01-10.HD720P.X264.AAC.english.CHS-ENG.Mp4Ba 10.55 GB 2016-01-06
权力的游戏 第五季/Game of Thrones (2015) S05E08 HDTV 1080p NL Subs SAM TBS 3.09 GB 2016-01-06
权力的游戏 第五季/[ www.CpasBien.pw ] Game.Of.Thrones.S05E08.FRENCH.LD.WEB-DL.XviD-SVR.avi 555.16 MB 2016-01-06
权力的游戏 第五季/Game of Thrones S05E06 720p HDTV x264 AAC - Ozlem 435.90 MB 2016-01-06
权力的游戏 第五季/Game of Thrones S05E10 - Mother's Mercy 349.21 MB 2016-01-06
权力的游戏 第五季/Game of Thrones S05E06 1080p WEB-DL AAC.5.1 H264 KIMO 1.23 GB 2016-01-06
权力的游戏 第五季/[ www.Cpasbien.pw ] Game.of.Thrones.S05E01.FASTSUB.VOSTFR.HDTV.x264-ADDiCTiON.mp4 290.36 MB 2016-01-06
权力的游戏 第五季/Game.of.Thrones.S05E01.720p.HDTV.x264-IMMERSE 1.01 GB 2016-01-06
权力的游戏 第五季/Game.of.Thrones.S05E04.HDTV.x264-Xclusive.mp4 341.88 MB 2016-01-06
权力的游戏 第五季/Game.of.Thrones.S05E09.HDTV.x264-ASAP[ettv] 439.33 MB 2016-01-06
权力的游戏 第五季/Game.of.Thrones.S05E02.The.House.of.Black.and.White.1080p.WEB-DL.6CH.x265.HEVC-PSA.mkv 710.01 MB 2016-01-06
权力的游戏 第五季/Game of Thrones (2015) S05E05 HDTV 1080p NL Subs SAM TBS 2.90 GB 2016-01-06
权力的游戏 第五季/Game.of.Thrones.S05E05.Kill.the.Boy.1080p.WEB-DL.DD5.1.H.264-NTb[rarbg] 2.05 GB 2016-01-06
权力的游戏 第五季/Game Of Thrones S05E06 Unbowed Unbent Unbroken 1080p WEB-DL 10bit AAC5.1 HEVC x265 MEANDRAGON.mkv 399.44 MB 2016-01-06
权力的游戏 第五季/Game Of Thrones S05E05 Kill the Boy.FLV 297.43 MB 2016-01-06
权力的游戏 第五季/[ www.CpasBien.pw ] Game.of.Thrones.S05E09.PROPER.VOSTFR.720p.HDTV.DD5.1.x264-AryaStark.mkv 1.44 GB 2016-01-06
权力的游戏 第五季/Game.of.Thrones.S05E01.HDTV.x264-ASAP.mp4 305.35 MB 2016-01-06
权力的游戏 第五季/[ www.Cpasbien.pw ] Game.of.Thrones.S05E02.FASTSUB.VOSTFR.HDTV.XviD-ZT.avi 353.76 MB 2016-01-06
权力的游戏 第五季/[ www.Cpasbien.pw ] Game.Of.Thrones.S05E02.VOSTFR.HDTV.XviD-ATeam.avi 577.71 MB 2016-01-06
权力的游戏 第五季/[ www.Cpasbien.pw ] Game.Of.Thrones.S05E04.VOSTFR.720p.HDTV.x264-ATeam.mkv 1.26 GB 2016-01-06
权力的游戏 第五季/[ www.CpasBien.pw ] Game.Of.Thrones.S05E04.FRENCH.HDTV.XviD-ZT.avi 454.51 MB 2016-01-06
权力的游戏 第五季/[ www.CpasBien.pw ] Game.Of.Thrones.S05E10.FASTSUB.VOSTFR.720p.HDTV.X264-ADDiCTiON.mkv 1.35 GB 2016-01-06
权力的游戏 第五季/[ www.OMGTORRENT.com ] Game.of.Thrones.S05E05.VOSTFR.HDTV.XviD-ZT.avi 353.32 MB 2016-01-06
权力的游戏 第五季/[ www.Cpasbien.pw ] Game.of.Thrones.S05E03.FASTSUB.VOSTFR.WEBRiP.XviD-TeamSuW.avi 436.60 MB 2016-01-06
权力的游戏 第五季/[ www.Cpasbien.pw ] Game.of.Thrones.S05E00.FASTSUB.VOSTFR.HDTV.XviD-ATN.avi 211.04 MB 2016-01-06
权力的游戏 第五季/Game.of.Thrones.S05E05.HDTV.x264-ASAP[rarbg] 299.32 MB 2016-01-06
权力的游戏 第五季/Game of Thrones S05E02 WEBRip XviD-FUM[ettv] 448.94 MB 2016-01-06
权力的游戏 第五季/Game.Of.Thrones.S05E04.720p.HDTV.x264-0SEC 1.04 GB 2016-01-06
权力的游戏 第五季/Game of Thrones S05E08 HDTV XviD-FUM[ettv] 491.28 MB 2016-01-06
权力的游戏 第五季/Game of Thrones S05E10 - Mother's Mercy [1080p.HDTV.x264.DD5.1] [Lektor PL i Napisy PL].mkv 2.16 GB 2016-01-06
权力的游戏 第五季/Game.of.Thrones.S05E01.HDTV.XviD-AFG.avi 429.91 MB 2016-01-06
权力的游戏 第五季/Game.of.Thrones.S05E07.720p.HDTV.x264-0SEC.mkv 1.31 GB 2016-01-06
权力的游戏 第五季/Game.of.Thrones.S05E02.720p.HDTV.x264-IMMERSE.mkv 1.21 GB 2016-01-06
权力的游戏 第五季/[ www.CpasBien.pw ] Game.of.Thrones.S05E09.SUBFRENCH.HDTV.XviD-ZT.avi 557.15 MB 2016-01-06
权力的游戏 第五季/Game.of.Thrones.S05E05.1080p.HDTV.x264-BATV[rarbg] 4.39 GB 2016-01-06
权力的游戏 第五季/Game.of.Thrones.S05E01.HDTV.x264-Xclusive.mp4 297.87 MB 2016-01-06
权力的游戏 第五季/[ www.CpasBien.pw ] Game.of.Thrones.S05E08.SUBFRENCH.HDTV.XviD-ZT.avi 453.00 MB 2016-01-06
权力的游戏 第五季/Game of Thrones S05E03 WEBRip XviD-FUM[ettv] 449.87 MB 2016-01-06
权力的游戏 第五季/冰与火之歌:权力的游戏.第五季全集.Game.of.Thrones.S05E01-10.HD720P.X264.AAC.english.CHS-ENG.Mp4Ba 10.55 GB 2016-01-06
权力的游戏 第五季/Game.of.Thrones.S05E08.1080p.HDTV.x264-BATV[rarbg] 4.97 GB 2016-01-06
权力的游戏 第五季/[150513][謦灵风软www.1000fr.net]-Game.of.Thrones.S05E05.FRTVS 390.94 MB 2016-01-06
权力的游戏 第五季/[ www.CpasBien.pw ] Game.Of.Thrones.S05E08.FASTSUB.VOSTFR.HDTV.XviD-ADDiCTiON.avi 547.76 MB 2016-01-06
权力的游戏 第五季/Game.of.Thrones.S05E07.HDTV.x264-ASAP[ettv] 350.62 MB 2016-01-06

如何下载该资源

通常情况下,如果你的电脑中安装了下载工具,点击立即下载按钮就会自动的开始下载。

如果不奏效,那复制新打开的窗口链接,手动打开下载工具粘贴磁力链接,之后开始下载。

下载工具
μTorrent BitComet 迅雷 Vuze
如何在线看电影
在线看电影请复制磁力链接,使用115离线下载百度网盘离线下载迅雷边下边看